Terug naar catalogus

STARLINK-34383

ActiefCommunicatieVLEO
NORAD 64305·PAYLOAD·🇺🇸 United States

Gelanceerd Jun 8, 2025 vanaf Vandenberg Space Force Base

Loading…

Volgende Passages (komende 24 uur)

TLE

VersSource: CelesTrak SupGP

Epoch: Sep 14, 2026, 21:10 UTC

1 64305C 25123Q   26257.88243056  .00029160  00000+0  10146-2 0  2577
2 64305  70.0000  75.7648 0003457 272.7842 302.7856 15.29557367    17

Volg STARLINK-34383 in realtime met AllMySat

Download on the App Store